Weather History for Kirksville, MO

Change the Weather History Date:

Friday, August 16, 2013

  Actual Average Record
Temperature  
Mean Temperature 65 °F 74 °F  
Max Temperature 80 °F 85 °F 107 °F (1936)
Min Temperature 50 °F 64 °F 49 °F (1992)
Degree Days  
Heating Degree Days 0 0  
Month to date heating degree days 5 0  
Since 1 June heating degree days 49 17  
Since 1 July heating degree days 13 1  
Cooling Degree Days 0 9  
Month to date cooling degree days 97 159  
Year to date cooling degree days 629 726  
Since 1 June cooling degree days 561 664  
Growing Degree Days 14 (Base 50)    
Moisture  
Dew Point 53 °F    
Average Humidity 70    
Maximum Humidity 100    
Minimum Humidity 39    
Precipitation  
Precipitation 0.00 in 0.12 in 5.37 in (2014)
Month to date precipitation T 1.80  
Year to date precipitation 29.89 25.39  
Sea Level Pressure  
Sea Level Pressure 30.18 in    
Wind  
Wind Speed 5 mph (ENE)    
Max Wind Speed 14 mph    
Max Gust Speed 18 mph    
Visibility 10 miles    
Events      
T = Trace of Precipitation, MM = Missing Value Source: NWS Daily Summary

Daily Weather History Graph

Daily Weather History Graph

Search for Another Location

Airport:

Trip Planner

Search our weather history database for the weather conditions in past years. The results will help you decide how hot, cold, wet, or windy it might be!

Date:

Astronomy

Aug. 16, 2013 Rise Set
Actual Time 6:22 AM CDT 8:05 PM CDT
Civil Twilight 5:53 AM CDT 8:34 PM CDT
Nautical Twilight 5:18 AM CDT 9:09 PM CDT
Astronomical Twilight 4:41 AM CDT 9:46 PM CDT
Moon 4:24 PM CDT (8/16) 1:25 AM CDT (8/16)
Length of Visible Light 14h 40m
Length of Day
13h 42m
Waxing Gibbous, 75% of the Moon is Illuminated
Aug 16
Waxing Gibbous
Aug 20
Full
Aug 28
Last Quarter
Sep 5
New
Sep 12
First Quarter

Hourly Weather History & Observations

Time (CDT) Temp. Dew Point Humidity Pressure Visibility Wind Dir Wind Speed Gust Speed Precip Events Conditions
12:55 AM 60.1 °F 54.0 °F 80% 30.14 in 10.0 mi ENE 4.6 mph - N/A   Partly Cloudy
1:55 AM 55.0 °F 53.1 °F 93% 30.15 in 10.0 mi Calm Calm - N/A   Clear
2:55 AM 53.1 °F 51.1 °F 93% 30.15 in 10.0 mi Calm Calm - N/A   Clear
3:55 AM 53.1 °F 51.1 °F 93% 30.16 in 9.0 mi NE 5.8 mph - N/A   Clear
4:55 AM 53.1 °F 51.1 °F 93% 30.16 in 10.0 mi NE 4.6 mph - N/A   Clear
5:55 AM 51.1 °F 50.0 °F 96% 30.17 in 9.0 mi NE 5.8 mph - N/A   Clear
6:55 AM 51.1 °F 51.1 °F 100% 30.18 in 5.0 mi Calm Calm - N/A   Clear
7:55 AM 59.0 °F 55.0 °F 87% 30.19 in 10.0 mi NE 4.6 mph - N/A   Clear
8:55 AM 66.0 °F 55.9 °F 70% 30.19 in 10.0 mi ENE 4.6 mph - N/A   Clear
9:55 AM 71.1 °F 55.0 °F 57% 30.19 in 10.0 mi NE 9.2 mph - N/A   Clear
10:55 AM 73.0 °F 55.0 °F 53% 30.20 in 10.0 mi ENE 8.1 mph - N/A   Clear
11:55 AM 73.0 °F 53.1 °F 49% 30.19 in 10.0 mi NE 6.9 mph - N/A   Mostly Cloudy
12:55 PM 75.9 °F 53.1 °F 45% 30.19 in 10.0 mi East 11.5 mph - N/A   Partly Cloudy
1:55 PM 78.1 °F 52.0 °F 40% 30.18 in 10.0 mi ENE 8.1 mph 17.3 mph N/A   Mostly Cloudy
2:55 PM 75.0 °F 52.0 °F 44% 30.17 in 10.0 mi ENE 9.2 mph - N/A   Scattered Clouds
3:55 PM 77.0 °F 52.0 °F 42% 30.16 in 10.0 mi East 8.1 mph - N/A   Scattered Clouds
4:55 PM 75.0 °F 51.1 °F 43% 30.16 in 10.0 mi ESE 8.1 mph - N/A   Partly Cloudy
5:55 PM 75.0 °F 53.1 °F 46% 30.17 in 10.0 mi East 8.1 mph - N/A   Overcast
6:55 PM 73.0 °F 54.0 °F 51% 30.17 in 10.0 mi ESE 4.6 mph - N/A   Mostly Cloudy
7:55 PM 66.0 °F 55.9 °F 70% 30.17 in 10.0 mi Calm Calm - N/A   Clear
8:55 PM 57.9 °F 55.0 °F 90% 30.19 in 10.0 mi Calm Calm - N/A   Clear
9:55 PM 57.0 °F 55.0 °F 93% 30.19 in 9.0 mi Calm Calm - N/A   Clear
10:55 PM 55.0 °F 53.1 °F 93% 30.20 in 9.0 mi Calm Calm - N/A   Clear
11:55 PM 54.0 °F 53.1 °F 97% 30.20 in 10.0 mi Calm Calm - N/A   Clear